RH
97 94 89 82 77 71 51 35 29 26 23 21 22 22 23 23 23 24 24 24 21 20 20 23 28 34 36 38 40 40 39 38 38 36 37 38 38 39 38 37 39 39 38 40 39 38 37
98 96 97 96 86 83 74 54 38 31 30 26 24 22 22 22 24 26 27 25 22 22 26 31 38 43 46 46 46 46 46 46 45 46 48 50 48 45 45 43 43 41 44 42 39 37 35
96 98 97 97 98 85 85 76 56 42 35 35 29 28 27 28 29 30 29 26 26 30 34 43 48 49 49 48 49 49 50 50 49 48 46 48 49 50 50 46 44 45 44 39 35 33 31
97 96 97 96 99 96 88 84 81 60 44 38 36 34 36 34 35 34 32 32 36 41 47 52 54 56 53 52 51 53 54 54 52 49 46 47 48 51 50 46 44 44 42 39 34 31 26
89 95 96 97 97 97 97 91 86 81 67 49 41 41 40 42 47 42 40 48 53 59 59 60 61 61 57 52 53 54 57 60 58 53 50 49 50 47 49 45 42 41 37 30 29 28 25
62 88 96 95 96 98 97 98 94 92 79 62 48 45 48 50 53 52 56 61 69 73 70 67 65 68 58 57 54 56 56 59 62 59 56 54 52 50 46 43 34 28 23 29 28 25 26
51 74 90 96 96 95 97 96 96 94 92 75 62 56 58 59 60 66 70 74 78 79 73 65 65 62 57 55 56 58 58 60 60 56 50 51 46 44 38 37 30 25 27 30 27 27 27
57 62 73 91 95 95 93 95 97 97 98 89 76 67 64 67 69 75 78 79 78 75 73 74 74 70 68 66 64 61 56 57 55 52 54 56 45 39 40 34 34 35 35 36 34 34 34
52 69 64 73 90 95 97 93 98 97 98 98 87 76 75 76 81 83 80 85 87 88 85 76 72 71 74 72 67 62 62 58 56 51 50 49 41 44 42 47 46 44 43 43 39 33 33
61 66 69 65 71 94 97 94 92 97 96 99 97 90 83 85 92 89 91 97 96 88 96 81 74 68 72 72 64 62 60 53 48 47 51 49 47 44 47 45 45 45 42 43 44 47 38
69 64 66 69 62 75 97 94 92 95 98 99 99 96 90 84 94 92 92 100 92 97 97 83 68 67 67 63 58 61 58 54 49 49 48 47 49 46 46 42 40 43 49 47 52 49 43
73 73 62 64 61 56 77 92 94 94 97 98 99 99 96 97 97 98 99 95 98 97 96 81 66 66 64 60 59 66 61 57 53 50 52 46 54 49 45 50 48 53 51 53 52 53 51
78 77 66 58 54 52 51 88 89 93 95 97 99 99 97 99 96 99 97 98 97 97 89 73 63 67 62 57 61 62 63 61 58 60 56 51 50 51 49 51 52 54 56 55 56 62 52
75 73 66 60 56 50 51 65 82 88 92 97 99 99 99 98 99 99 97 97 97 89 90 66 67 68 63 62 60 66 65 67 66 63 58 59 61 59 56 53 58 58 58 59 57 50 45
70 73 70 65 53 49 49 49 84 84 92 96 99 99 99 98 99 98 98 98 94 87 87 75 71 67 63 62 61 62 65 63 66 67 60 63 68 68 61 60 61 65 63 68 69 59 67
72 74 67 64 65 61 50 43 79 86 94 99 99 99 98 99 99 99 98 95 97 91 81 77 77 69 67 63 64 65 71 74 71 70 70 70 78 73 67 64 62 60 64 65 80 86 73
85 80 70 72 73 65 43 33 72 87 97 98 99 98 98 99 98 98 97 98 98 98 89 84 94 92 76 71 68 72 79 79 72 68 64 65 65 73 67 58 57 63 57 64 65 65 70
92 86 80 83 87 72 58 42 74 93 95 100 98 98 98 98 98 98 98 98 97 97 98 98 96 94 92 89 88 86 83 80 79 74 73 73 70 74 65 64 56 54 58 71 73 72 75
93 87 84 91 97 97 69 55 82 89 90 98 99 98 98 98 97 97 98 97 97 97 97 97 98 95 94 95 95 91 88 87 81 72 73 71 76 68 68 76 71 70 66 70 64 63 52
97 92 95 97 99 97 88 80 91 98 99 97 98 97 97 97 97 96 96 97 97 97 97 97 97 95 96 96 90 91 87 87 81 76 70 64 64 59 50 55 51 51 49 65 63 63 58
95 98 98 98 98 94 96 89 91 98 99 97 97 97 94 95 96 94 91 97 96 97 97 96 97 93 92 95 89 88 84 85 81 76 71 67 68 61 54 45 45 42 44 54 53 55 70
89 97 98 98 98 96 98 95 98 95 93 97 96 96 97 98 98 97 95 97 95 96 96 97 95 92 86 87 78 83 78 73 71 74 72 68 60 58 58 46 43 49 47 43 43 43 45
82 95 98 98 99 98 97 98 98 97 97 97 98 96 93 97 97 96 96 96 96 93 96 91 91 90 87 83 74 69 67 62 59 60 62 67 60 61 49 47 44 47 37 36 36 31 31
71 83 97 98 99 98 98 98 98 99 97 96 97 96 94 97 97 96 96 94 97 95 93 93 87 81 81 74 67 65 65 62 59 57 54 59 60 62 58 55 67 43 33 33 33 30 35
59 70 84 98 98 98 98 98 98 98 98 97 97 96 96 97 96 98 97 97 94 92 90 87 82 71 69 66 67 70 65 60 60 60 59 61 65 68 68 65 47 33 28 33 38 30 30
47 58 68 86 98 98 98 98 98 98 98 95 97 97 95 96 98 95 96 94 93 90 87 85 78 72 69 63 62 63 58 47 47 52 61 68 69 66 62 60 45 28 38 33 36 38 33
43 46 57 64 82 97 98 98 98 98 97 96 94 96 96 96 98 96 94 92 87 82 81 84 82 80 71 67 65 58 52 43 43 43 56 63 70 66 61 62 35 33 33 44 44 31 30
46 41 46 54 62 76 93 96 95 96 97 96 94 92 89 94 98 96 91 88 86 81 80 83 81 80 72 70 64 62 57 51 47 42 49 49 55 55 59 64 58 31 34 41 25 28 24
50 45 42 48 53 61 70 84 92 93 92 90 91 93 91 89 94 95 91 89 83 78 75 77 73 70 69 69 65 65 61 60 51 54 42 45 43 47 54 41 35 31 29 34 34 30 29